Lapse_Rate
7.3 5.4 4.3 4.2 4.3 4.0 3.8 3.6 3.5 3.6 3.7 3.9 3.8 3.9 3.9 4.4 4.9 5.3 5.6 5.7 6.9 6.5 6.6 6.2 5.7 5.6 5.6 5.6 5.7 5.7 5.9 6.3 6.4 6.0 5.8 6.2 6.4 6.4 6.3 6.1 6.4 6.6 6.4
5.9 7.0 4.6 4.7 4.5 4.4 4.2 3.9 3.7 3.9 4.0 4.1 3.8 3.7 4.3 4.7 4.9 5.2 5.3 6.0 7.1 6.6 6.4 6.1 6.1 6.1 6.0 5.8 5.8 5.8 5.9 6.2 6.5 6.9 6.6 6.2 6.0 6.0 5.7 5.7 5.8 6.2 6.8
3.8 6.5 6.3 5.8 5.2 4.9 4.7 4.4 4.2 4.3 4.4 4.0 3.8 3.9 4.5 4.8 4.9 5.2 5.7 6.3 6.9 6.5 6.6 6.6 6.4 6.2 5.9 5.6 5.9 6.4 6.6 6.3 6.4 7.4 8.1 7.8 7.9 7.2 6.1 6.0 5.7 6.0 6.1
3.8 6.7 6.0 5.5 5.6 5.4 5.0 4.7 4.5 4.8 4.6 4.1 3.9 4.3 4.7 4.9 5.1 5.5 5.9 6.2 6.4 6.5 6.6 6.5 6.1 5.9 5.7 5.6 6.0 6.1 6.0 6.3 7.6 8.7 8.8 8.3 7.3 7.2 7.1 6.3 6.1 6.2 5.6
7.0 6.2 6.1 5.8 5.8 5.4 5.0 4.8 4.8 4.8 4.4 4.0 4.4 4.7 4.9 5.1 5.3 5.6 5.8 6.1 6.4 6.6 6.6 6.3 6.0 5.7 5.2 5.6 5.7 6.1 6.7 7.3 8.1 7.7 7.4 7.4 6.3 6.4 6.1 5.9 5.6 5.6 5.8
6.0 4.8 2.6 5.1 6.1 5.9 5.3 4.9 4.8 4.5 4.1 4.2 4.7 4.8 5.1 5.3 5.6 5.7 5.9 6.2 6.4 6.5 6.4 6.0 5.6 5.2 5.2 5.5 5.7 5.8 6.0 6.4 8.6 7.9 6.2 6.0 5.9 6.3 5.8 5.5 5.6 5.5 5.5
4.1 4.8 4.1 3.6 5.1 5.7 5.3 5.0 4.9 4.5 4.1 4.5 4.9 4.8 5.1 5.3 5.5 5.7 6.0 6.2 6.1 6.1 5.9 5.5 5.2 5.0 5.3 5.5 6.0 6.2 6.8 8.0 8.2 7.3 6.3 5.7 6.0 6.2 6.0 5.7 5.6 5.6 6.0
5.5 5.1 4.9 5.1 5.3 5.7 5.5 5.1 4.4 4.2 4.3 4.5 4.7 4.7 4.9 5.0 5.0 5.1 5.5 5.5 5.5 5.3 5.0 4.9 5.0 5.2 5.2 5.7 6.4 7.0 7.3 7.5 8.7 7.7 6.7 5.8 6.2 6.4 6.3 6.2 6.0 6.0 6.1
4.8 5.4 5.4 5.0 4.9 5.2 5.5 4.5 4.3 4.1 4.4 4.8 4.5 4.3 4.4 4.7 4.7 4.8 4.9 4.8 4.9 4.9 4.9 5.0 5.2 5.1 5.1 6.2 6.8 7.1 7.4 7.3 7.7 8.0 7.4 6.2 7.0 7.1 7.1 7.1 6.8 6.7 6.7
4.6 4.2 4.1 4.6 5.2 7.1 6.3 6.1 5.1 4.6 3.9 3.9 4.2 4.6 4.7 4.7 4.6 4.6 4.6 4.8 4.9 5.0 5.1 5.2 5.2 5.1 5.7 6.2 6.8 7.2 7.2 7.5 8.8 6.9 6.2 5.9 6.5 7.4 7.4 7.5 7.2 7.0 7.0
3.7 3.8 3.9 3.6 4.2 3.8 6.2 6.5 5.8 4.7 4.4 4.9 5.2 5.2 5.9 5.6 5.6 5.8 4.8 4.9 5.0 5.1 5.2 5.2 5.4 6.1 6.3 6.9 7.5 7.5 7.7 9.0 8.4 6.1 5.2 6.0 6.6 7.5 7.5 7.6 7.6 7.4 7.4
3.2 4.0 4.4 4.4 4.5 4.9 4.5 7.3 6.7 6.4 6.3 6.0 5.7 6.2 6.3 6.5 6.4 5.2 4.7 5.0 5.1 5.1 5.1 6.0 6.5 6.4 6.8 7.1 7.7 7.9 8.7 9.1 7.6 5.6 4.8 5.7 6.7 8.2 8.2 7.9 7.7 7.0 7.3
3.2 3.3 3.6 3.7 4.4 4.5 5.0 6.7 8.0 7.3 6.1 6.5 6.2 7.2 7.1 5.6 5.9 4.8 4.7 5.2 4.9 5.6 6.2 6.2 5.7 6.4 8.2 8.2 7.6 7.2 7.9 8.5 8.1 6.1 5.0 5.5 5.9 7.5 7.8 7.6 7.5 7.5 7.6
3.8 3.8 4.3 4.6 5.7 5.4 6.5 7.2 6.9 7.7 7.1 6.5 7.2 7.8 7.8 6.9 6.3 6.4 6.4 6.8 6.7 6.5 6.6 7.6 7.7 8.5 8.0 7.8 7.5 7.3 7.3 7.3 7.8 5.4 5.0 5.3 5.0 5.7 7.0 7.6 8.1 8.6 8.1
3.1 3.7 4.4 5.0 5.5 5.5 5.3 5.9 7.7 6.9 7.5 8.0 7.4 8.5 8.4 7.0 6.4 7.1 7.4 7.4 7.4 7.9 7.6 8.4 7.9 7.9 7.8 7.8 7.8 7.4 7.9 7.7 7.6 7.4 5.2 5.9 5.9 5.8 6.7 8.2 8.3 8.4 8.7
4.1 4.4 5.4 5.5 5.6 5.4 5.2 5.3 5.5 7.9 8.0 7.8 7.2 7.7 8.7 8.0 7.8 7.8 8.0 8.1 8.3 8.9 9.2 8.8 8.1 7.9 8.1 7.8 6.8 7.4 7.0 7.0 7.1 7.8 6.2 6.3 6.5 6.2 6.3 7.9 8.9 8.3 8.6
4.9 5.0 5.5 5.4 5.3 5.7 5.4 5.5 6.3 7.5 8.2 7.3 7.9 8.7 8.1 8.5 8.5 8.3 7.7 7.6 8.1 9.1 9.0 9.0 8.6 8.8 7.8 8.4 7.2 7.4 6.8 7.0 7.5 7.5 8.2 6.4 6.0 6.6 6.9 7.0 8.0 8.2 8.4
5.8 6.1 6.1 6.2 5.3 4.8 5.3 5.8 6.7 7.4 6.6 7.8 8.3 8.3 8.4 8.3 8.7 8.2 7.6 7.7 8.8 8.6 8.5 7.8 7.2 6.9 6.7 6.7 6.0 6.5 7.6 8.1 8.0 7.9 8.3 8.1 8.0 6.9 6.4 7.0 7.0 7.3 7.6
6.7 5.3 4.7 4.8 5.7 5.8 7.0 8.9 8.1 7.0 6.5 6.9 7.3 7.8 8.0 8.0 9.0 8.3 8.1 8.1 8.3 7.9 7.6 7.5 6.6 7.0 6.6 6.9 6.6 6.4 6.7 6.9 7.7 9.0 8.2 8.2 7.7 8.2 7.7 7.1 7.2 7.1 7.3
6.3 6.1 6.4 6.4 6.3 6.6 7.0 6.9 7.7 8.0 7.9 8.2 8.4 8.7 8.7 8.3 8.1 7.7 7.6 8.2 6.9 6.9 6.8 7.3 7.1 7.3 6.7 6.1 8.5 6.7 5.5 5.9 7.2 7.1 7.5 8.5 9.1 8.4 8.1 8.4 7.7 7.6 7.4
6.2 6.9 6.8 6.8 6.7 6.8 6.9 7.3 7.9 7.5 7.7 7.6 8.1 8.7 7.9 7.9 7.5 7.2 7.1 7.6 5.9 6.3 6.9 7.0 6.8 6.8 6.4 6.0 5.4 5.1 5.2 5.1 5.4 5.3 7.2 7.6 8.5 8.5 8.6 8.1 8.4 8.8 7.4
7.2 6.7 7.6 7.8 7.5 7.5 7.3 7.7 8.2 7.8 7.8 7.8 8.2 8.3 7.8 8.0 7.7 7.0 6.7 6.7 5.3 6.2 6.8 6.4 6.3 5.8 5.8 5.3 5.1 5.9 5.6 5.5 5.1 5.1 5.0 5.6 6.8 8.3 8.7 8.9 8.9 9.1 8.5
7.6 6.7 7.1 7.9 8.2 8.5 7.4 7.8 8.3 7.7 7.1 7.4 7.5 6.8 7.1 7.8 8.2 7.9 7.5 7.6 6.4 6.0 6.1 5.4 5.6 6.1 5.8 5.5 5.5 4.9 5.3 5.2 4.8 4.3 5.0 5.6 5.9 5.7 7.7 8.5 8.9 9.2 9.3
8.0 7.9 8.5 8.6 8.6 8.2 7.8 7.3 7.5 8.2 7.8 7.3 6.7 7.1 6.9 7.0 7.3 8.2 8.4 8.0 7.2 6.4 6.2 5.5 5.8 5.8 6.2 5.4 4.7 5.8 5.7 5.9 5.7 4.7 5.7 5.4 5.7 6.3 5.4 7.0 8.4 8.9 9.0
8.2 8.1 7.9 8.1 8.3 8.5 8.3 7.9 7.2 7.4 6.9 6.9 6.9 5.9 6.0 5.6 7.3 7.6 7.8 7.4 6.0 6.2 6.1 5.7 6.1 6.1 5.9 4.8 5.7 5.3 5.7 6.2 5.7 5.4 5.1 5.3 5.8 5.7 5.6 6.3 7.7 8.3 9.0
8.3 8.0 7.8 8.2 8.5 8.5 7.4 7.0 6.4 6.5 7.0 6.6 6.0 5.3 5.2 5.3 5.6 6.4 7.2 7.0 6.7 5.9 5.7 6.3 6.3 6.1 4.2 4.1 4.4 4.9 5.5 6.9 7.1 6.5 6.1 5.6 5.7 6.0 6.8 6.7 6.0 7.3 8.2
Wind_Speed
12 19 24 26 24 26 27 28 27 26 25 24 25 25 24 24 24 24 24 24 27 27 25 25 25 25 24 24 23 21 20 23 28 29 27 28 28 27 28 27 25 24 25
15 15 22 25 25 25 26 27 27 26 25 25 25 25 23 23 23 24 23 23 27 26 25 25 24 24 22 19 17 16 15 17 22 30 28 26 26 26 26 25 24 24 26
20 14 21 24 24 25 27 27 26 25 25 25 26 25 24 23 23 23 23 23 27 26 25 24 23 21 19 16 14 13 13 12 7 2 28 21 22 24 24 24 24 25 25
15 15 18 24 26 26 26 26 26 25 24 25 26 25 24 22 22 22 22 22 26 24 25 23 22 21 16 12 12 12 13 14 18 27 23 21 21 22 22 23 24 23 23
17 22 18 25 27 28 27 27 25 24 25 25 25 25 24 22 22 22 23 23 24 23 24 22 21 18 14 12 12 12 14 14 15 25 24 21 19 20 21 21 21 21 22
14 23 29 17 30 28 27 26 25 25 25 25 25 25 23 22 22 23 24 24 24 23 23 22 19 16 14 11 10 10 13 13 22 24 21 20 17 19 20 21 20 21 21
10 14 19 29 22 25 26 26 24 23 25 25 24 25 23 23 21 23 25 25 24 23 22 20 18 15 14 11 12 15 20 20 25 24 21 18 18 19 19 20 19 20 20
14 16 19 26 22 23 24 25 25 24 24 24 25 25 24 23 22 23 24 25 23 22 21 18 17 16 13 13 11 12 14 19 22 23 21 16 16 17 18 17 18 18 19
12 14 20 19 22 20 19 20 23 25 24 22 23 24 25 23 24 23 23 24 22 21 20 18 17 15 13 11 9 11 14 14 7 19 20 16 14 14 15 15 15 16 17
13 13 12 17 21 19 19 19 21 21 22 23 23 26 27 24 25 24 22 22 21 21 19 19 17 15 13 9 7 6 10 14 17 22 19 13 12 12 12 12 13 14 15
11 13 13 15 15 25 20 18 20 20 22 22 22 26 22 18 22 21 20 20 19 19 19 18 17 15 13 8 3 4 8 13 18 19 16 10 9 9 10 10 10 12 12
10 10 11 14 16 21 26 15 16 14 14 13 17 16 16 18 16 20 19 19 19 18 16 16 15 14 12 10 4 3 11 9 17 17 14 13 6 7 8 8 9 10 10
10 11 11 12 18 17 17 18 16 17 12 10 13 12 17 17 17 15 14 13 13 14 11 10 10 10 7 12 15 14 12 12 16 15 13 11 7 6 7 7 8 9 9
11 11 10 12 12 13 16 15 10 10 11 9 3 2 15 11 13 14 11 14 14 15 15 14 7 9 9 11 9 7 9 12 9 14 13 10 8 4 4 7 8 8 8
11 10 10 9 11 14 15 9 10 10 9 9 9 5 3 8 6 14 12 14 15 15 15 9 12 7 7 6 6 7 5 7 6 10 11 10 6 3 1 6 9 10 9
12 11 13 12 15 18 8 10 3 4 10 8 7 6 11 9 8 9 8 9 10 11 9 9 10 9 7 9 6 4 5 7 7 6 8 9 7 5 3 5 9 11 10
10 12 10 11 16 13 13 8 8 8 11 2 6 10 10 10 10 4 5 3 7 9 10 7 8 8 6 6 7 5 6 5 5 3 6 11 9 6 7 6 3 8 8
13 10 10 11 10 10 11 13 16 14 5 6 8 12 11 8 11 8 6 4 9 8 7 6 3 3 4 4 3 3 4 4 7 2 5 4 6 9 8 12 11 7 5
15 14 13 13 16 14 15 16 13 12 8 11 14 13 18 18 12 8 5 7 11 8 6 5 3 3 3 2 4 3 3 2 7 7 4 3 1 4 11 8 9 9 8
16 15 15 13 19 15 8 16 13 9 15 15 16 14 20 14 10 10 8 10 12 5 4 3 3 2 1 3 3 3 4 5 5 4 5 7 6 6 1 7 9 10 13
18 17 17 16 16 10 8 10 10 8 6 7 11 18 18 17 17 12 10 11 10 4 5 5 3 4 2 2 2 3 4 6 5 3 7 7 8 11 8 1 5 8 13
20 20 19 19 18 14 10 11 8 7 7 7 11 14 15 17 16 13 11 6 9 4 6 6 5 3 3 4 2 1 2 1 3 5 4 5 6 4 4 9 11 4 2
20 20 19 20 19 18 16 10 8 7 6 6 6 4 5 10 14 14 15 8 7 5 5 6 5 5 4 2 4 2 1 3 2 3 5 3 5 4 7 6 4 8 8
21 20 20 19 19 19 17 12 12 9 8 6 5 5 8 14 13 15 15 11 7 6 4 5 4 4 3 3 2 2 2 1 0 4 0 4 4 5 5 9 10 5 3
19 20 18 20 21 19 16 10 10 7 5 6 8 8 9 9 11 11 8 9 5 5 3 6 6 6 3 3 2 2 3 3 4 4 4 4 3 4 5 9 13 9 4
17 17 19 20 20 18 16 14 8 7 7 4 3 6 5 4 6 9 9 7 7 6 5 5 5 6 5 4 2 1 2 1 1 2 2 3 3 3 2 5 9 11 11
Wind_Direction
115 127 130 131 132 129 128 126 125 123 119 116 111 107 104 105 104 107 107 105 105 101 98 94 91 88 88 90 91 93 96 98 98 87 73 68 64 60 54 51 57 56 59
337 124 124 134 133 131 128 126 124 123 121 118 111 108 108 107 107 109 108 107 107 102 99 96 94 93 95 99 100 97 95 105 109 101 83 69 68 66 66 61 59 59 56
293 128 134 135 133 132 129 127 124 124 123 117 114 113 112 111 111 110 108 107 107 105 104 101 100 96 94 90 85 88 97 112 134 11 86 78 71 69 67 64 68 62 61
206 154 141 135 134 132 129 126 126 127 123 119 117 118 116 115 114 114 114 112 110 111 108 105 101 98 95 87 78 53 37 32 55 63 71 74 69 60 68 67 63 65 66
153 151 149 143 141 134 130 129 130 126 123 122 121 119 117 117 116 115 117 117 117 114 111 107 104 104 95 82 58 37 25 19 59 72 60 68 72 64 67 65 66 66 64
145 159 141 150 144 129 130 131 129 127 124 123 123 118 117 116 117 120 123 124 121 115 114 112 110 105 95 77 59 32 12 19 96 85 79 72 69 70 69 68 67 68 66
103 106 123 131 140 132 131 127 126 124 123 122 121 117 115 112 113 118 121 122 119 119 117 115 112 103 92 68 44 27 19 34 98 94 84 76 74 71 68 69 71 70 72
123 120 114 115 128 128 126 125 124 122 121 122 121 116 111 109 105 106 113 115 117 119 119 116 114 106 95 74 51 35 23 23 100 100 94 85 78 74 73 72 73 76 76
105 115 112 108 103 94 96 114 120 121 116 115 116 112 108 108 108 110 113 117 121 121 118 116 112 107 97 83 56 30 15 1 49 98 92 87 83 78 78 79 81 80 82
107 92 92 95 101 96 94 92 99 99 102 112 113 116 116 114 111 109 113 119 123 122 122 121 119 111 107 102 77 28 359 329 72 85 92 102 94 87 82 82 85 88 87
97 104 107 108 112 122 120 114 104 107 110 116 119 123 121 121 121 108 113 117 121 125 126 127 127 130 130 119 104 34 345 28 62 90 88 101 103 98 100 98 100 99 93
100 92 115 123 128 133 129 130 123 110 124 126 136 135 128 125 116 112 116 122 129 133 135 140 149 155 156 154 166 85 47 14 85 93 97 88 101 121 121 120 117 108 110
103 103 105 119 131 135 133 148 158 130 114 154 166 132 117 115 117 107 121 125 131 138 139 163 172 191 210 79 63 47 23 22 60 96 109 103 83 139 147 140 131 129 127
97 114 121 119 134 117 128 129 126 125 158 156 162 97 126 127 127 134 163 160 167 173 160 198 196 94 77 81 81 87 55 30 26 117 113 112 96 78 161 166 160 152 147
97 106 106 92 99 101 99 104 162 140 139 131 87 111 171 147 150 164 185 169 185 187 185 184 114 142 112 109 89 70 76 109 3 85 122 114 115 98 79 205 181 170 161
111 105 105 91 88 92 103 110 107 79 89 128 182 200 200 175 201 192 165 182 168 146 180 148 168 141 181 131 108 73 60 46 65 14 135 128 128 123 105 216 211 181 175
125 123 109 108 132 117 124 139 229 175 176 183 210 186 235 236 183 208 153 187 150 178 167 168 147 172 129 190 129 149 157 142 110 44 324 156 147 141 131 95 162 183 183
139 116 117 119 136 131 166 188 203 190 188 191 234 213 221 241 195 228 167 175 180 147 159 136 177 168 196 186 138 175 144 142 131 202 247 18 127 148 118 118 108 109 106
148 143 150 151 162 185 199 164 181 195 204 218 216 199 202 217 206 188 186 196 155 160 192 181 198 177 179 167 169 173 136 273 171 219 124 145 99 51 140 151 154 160 165
156 160 168 174 174 193 185 178 190 209 201 216 198 205 192 189 198 202 220 191 168 194 184 174 170 189 161 195 261 155 180 191 219 198 187 189 191 136 288 152 187 204 199
161 174 173 177 188 193 197 201 224 198 199 219 210 209 184 184 185 190 221 171 174 212 184 174 157 157 228 96 1 274 237 192 193 212 201 197 213 166 204 101 282 293 201
171 180 182 184 191 198 199 209 213 194 203 217 218 200 170 192 180 190 224 181 177 217 175 164 158 166 223 164 190 283 286 286 210 209 224 193 197 217 193 209 219 243 260
176 185 191 186 191 201 203 213 216 188 193 208 207 171 171 199 207 200 205 207 174 202 176 161 173 196 195 166 185 146 276 238 20 181 209 216 172 178 197 247 264 234 221
191 190 195 187 192 200 202 210 208 197 200 195 207 180 189 195 217 230 200 198 184 185 176 165 177 203 212 195 105 142 241 321 305 344 92 227 198 174 201 222 223 201 248
190 185 191 193 197 198 202 201 216 188 201 207 194 181 170 174 201 237 212 191 201 165 193 178 186 185 193 128 138 152 228 199 216 191 262 307 230 208 221 203 204 192 199
192 187 192 201 200 196 190 208 198 226 205 234 208 189 171 176 182 190 231 191 177 179 209 187 165 145 120 105 82 264 228 239 274 260 270 266 289 291 245 197 173 187 209